FW1574 Weather Reports


Display with metric or nautical units.
time (UTC)temp
F
wind
direction
speed
MPH
gust
MPH
rain 1hr
in
rain 24hr
in
rain mn
in
humidity
%
barometer
mb
20260902202005 94 22 0.0 0.0 0.00 0.00 0.00 53 1015.3
20260902201505 94 51 0.0 0.0 0.00 0.00 0.00 53 1015.3
20260902201004 94 90 0.0 0.0 0.00 0.00 0.00 53 1015.3
20260902200505 94 314 0.0 0.0 0.00 0.00 0.00 56 1015.4
20260902200003 94 280 0.0 0.0 0.00 0.00 0.00 55 1015.4
20260902195503 94 224 0.0 0.0 0.00 0.00 0.00 57 1015.5
20260902195002 94 133 0.0 0.0 0.00 0.00 0.00 54 1015.6
20260902194503 94 272 0.0 0.0 0.00 0.00 0.00 53 1015.7
20260902194104 94 113 0.0 0.0 0.00 0.00 0.00 53 1015.7
20260902193559 94 107 0.0 0.0 0.00 0.00 0.00 53 1015.8
20260902193100 94 84 0.0 0.0 0.00 0.00 0.00 54 1015.9
20260902192559 94 280 0.0 0.0 0.00 0.00 0.00 53 1016.0
20260902192058 94 134 0.0 0.0 0.00 0.00 0.00 53 1016.0
20260902191558 94 89 0.0 0.0 0.00 0.00 0.00 54 1016.1
20260902191056 94 27 0.0 0.0 0.00 0.00 0.00 53 1016.2
20260902190555 94 277 0.0 0.0 0.00 0.00 0.00 53 1016.2
20260902190055 94 305 0.0 0.0 0.00 0.00 0.00 53 1016.3
20260902185558 93 180 0.0 0.0 0.00 0.00 0.00 56 1016.4
20260902185054 93 211 0.0 0.0 0.00 0.00 0.00 55 1016.5
20260902184554 94 271 0.0 0.0 0.00 0.00 0.00 58 1016.5
20260902184053 93 280 0.0 0.0 0.00 0.00 0.00 57 1016.5
20260902183553 93 110 0.0 0.0 0.00 0.00 0.00 57 1016.5
20260902183053 93 19 0.0 0.0 0.00 0.00 0.00 57 1016.6
20260902182552 93 259 0.0 0.0 0.00 0.00 0.00 52 1016.6
20260902182051 93 19 0.0 0.0 0.00 0.00 0.00 56 1016.8
20260902181551 93 281 0.0 0.0 0.00 0.00 0.00 58 1016.7
20260902181051 92 123 0.0 0.0 0.00 0.00 0.00 57 1016.7
20260902180550 93 355 0.0 0.0 0.00 0.00 0.00 59 1016.8
20260902180053 93 277 0.0 0.0 0.00 0.00 0.00 59 1016.9
20260902175550 93 317 0.0 0.0 0.00 0.00 0.00 58 1017.0
20260902175049 92 13 0.0 0.0 0.00 0.00 0.00 60 1017.1
20260902174548 92 360 0.0 0.0 0.00 0.00 0.00 59 1017.2
20260902174048 92 113 0.0 0.0 0.00 0.00 0.00 60 1017.2
20260902173548 92 71 0.0 0.0 0.00 0.00 0.00 61 1017.2
20260902173048 92 35 0.0 0.0 0.00 0.00 0.00 62 1017.3
20260902172548 92 110 0.0 0.0 0.00 0.00 0.00 64 1017.4
20260902172049 91 293 0.0 0.0 0.00 0.00 0.00 63 1017.5
20260902171546 91 138 0.0 0.0 0.00 0.00 0.00 65 1017.6
20260902171044 90 267 0.0 0.0 0.00 0.00 0.00 65 1017.7
20260902170543 90 227 0.0 0.0 0.00 0.00 0.00 64 1017.8
20260902170043 90 245 0.0 0.0 0.00 0.00 0.00 64 1017.8
20260902165543 90 338 0.0 0.0 0.00 0.00 0.00 67 1017.9
20260902165042 89 348 0.0 0.0 0.00 0.00 0.00 66 1017.9
20260902164541 89 318 0.0 0.0 0.00 0.00 0.00 69 1018.1
20260902164040 88 230 0.0 0.0 0.00 0.00 0.00 67 1018.1
20260902163539 89 253 0.0 0.0 0.00 0.00 0.00 70 1018.2
20260902163042 88 279 0.0 0.0 0.00 0.00 0.00 71 1018.3
20260902162538 88 273 0.0 0.0 0.00 0.00 0.00 72 1018.3
20260902162038 88 311 0.0 0.0 0.00 0.00 0.00 71 1018.3
20260902161541 88 316 0.0 0.0 0.00 0.00 0.00 71 1018.4
20260902161037 88 336 0.0 0.0 0.00 0.00 0.00 71 1018.5
20260902160535 88 265 0.0 0.0 0.00 0.00 0.00 72 1018.5
20260902160035 87 235 0.0 0.0 0.00 0.00 0.00 72 1018.5
20260902155535 87 215 0.0 0.0 0.00 0.00 0.00 70 1018.6
20260902155037 87 298 0.0 0.0 0.00 0.00 0.00 71 1018.7
20260902154533 87 355 0.0 0.0 0.00 0.00 0.00 72 1018.6
20260902154032 86 264 0.0 0.0 0.00 0.00 0.00 75 1018.7
20260902153531 86 264 0.0 0.0 0.00 0.00 0.00 74 1018.8
20260902153030 86 335 0.0 0.0 0.00 0.00 0.00 73 1018.8
20260902152529 86 170 0.0 0.0 0.00 0.00 0.00 71 1018.8
20260902152029 85 102 0.0 0.0 0.00 0.00 0.00 74 1018.9
20260902151530 85 32 0.0 0.0 0.00 0.00 0.00 75 1018.9
20260902151027 85 76 0.0 0.0 0.00 0.00 0.00 77 1018.9
20260902150524 84 96 0.0 0.0 0.00 0.00 0.00 78 1018.9
20260902150023 84 271 0.0 0.0 0.00 0.00 0.00 78 1018.8
20260902145523 83 355 0.0 0.0 0.00 0.00 0.00 79 1018.8
20260902145022 83 17 0.0 0.0 0.00 0.00 0.00 78 1018.8
20260902144522 83 90 0.0 0.0 0.00 0.00 0.00 78 1018.8
20260902144021 83 125 0.0 0.0 0.00 0.00 0.00 78 1018.8
20260902143524 82 348 0.0 0.0 0.00 0.00 0.00 80 1018.7
20260902143019 82 5 0.0 0.0 0.00 0.00 0.00 80 1018.7
20260902142521 82 344 0.0 0.0 0.00 0.00 0.00 82 1018.7
20260902142118 81 310 0.0 0.0 0.00 0.00 0.00 82 1018.7
20260902141516 81 90 0.0 0.0 0.00 0.00 0.00 84 1018.7
20260902141016 81 82 0.0 0.0 0.00 0.00 0.00 84 1018.7
20260902140514 80 241 0.0 0.0 0.00 0.00 0.00 87 1018.7
20260902140015 80 33 0.0 0.0 0.00 0.00 0.00 87 1018.7
20260902135511 79 67 0.0 0.0 0.00 0.00 0.00 90 1018.7
20260902135010 79 44 0.0 0.0 0.00 0.00 0.00 92 1018.9
20260902134517 77 98 0.0 0.0 0.00 0.00 0.00 95 1018.9
20260902134007 75 98 0.0 0.0 0.00 0.00 0.00 97 1018.9
20260902133509 75 98 0.0 0.0 0.00 0.00 0.00 97 1018.8
20260902133006 75 98 0.0 0.0 0.00 0.00 0.00 97 1018.9
20260902132509 74 98 0.0 0.0 0.00 0.00 0.00 97 1018.9
20260902132006 74 98 0.0 0.0 0.00 0.00 0.00 97 1018.9
20260902131506 74 98 0.0 0.0 0.00 0.00 0.00 97 1018.9
20260902131006 73 98 0.0 0.0 0.00 0.00 0.00 97 1018.9
20260902130505 73 98 0.0 0.0 0.00 0.00 0.00 97 1018.8
20260902130004 73 98 0.0 0.0 0.00 0.00 0.00 97 1018.7
20260902125504 72 98 0.0 0.0 0.00 0.00 0.00 97 1018.7
20260902125006 72 98 0.0 0.0 0.00 0.00 0.00 97 1018.7
20260902124504 72 98 0.0 0.0 0.00 0.00 0.00 97 1018.7
20260902124003 72 98 0.0 0.0 0.00 0.00 0.00 96 1018.7
20260902123503 72 98 0.0 0.0 0.00 0.00 0.00 96 1018.8
20260902123003 71 98 0.0 0.0 0.00 0.00 0.00 96 1018.7
20260902122504 71 98 0.0 0.0 0.00 0.00 0.00 96 1018.7
20260902122001 71 98 0.0 0.0 0.00 0.00 0.00 96 1018.6
20260902121505 71 98 0.0 0.0 0.00 0.00 0.00 96 1018.6
20260902121001 71 98 0.0 0.0 0.00 0.00 0.00 96 1018.6
20260902120600 71 98 0.0 0.0 0.00 0.00 0.00 96 1018.5
20260902120101 71 98 0.0 0.0 0.00 0.00 0.00 96 1018.3
20260902115559 71 98 0.0 0.0 0.00 0.00 0.00 96 1018.2
20260902115058 71 98 0.0 0.0 0.00 0.00 0.00 96 1018.2
20260902114558 70 98 0.0 0.0 0.00 0.00 0.00 96 1018.2
20260902114057 70 98 0.0 0.0 0.00 0.00 0.00 96 1018.0
20260902113556 70 98 0.0 0.0 0.00 0.00 0.00 95 1018.0
20260902113058 70 98 0.0 0.0 0.00 0.00 0.00 95 1017.9
20260902112556 70 98 0.0 0.0 0.00 0.00 0.00 96 1017.9
20260902112059 70 98 0.0 0.0 0.00 0.00 0.00 96 1017.9
20260902111556 70 98 0.0 0.0 0.00 0.00 0.00 96 1017.9
20260902111054 70 98 0.0 0.0 0.00 0.00 0.00 95 1017.7
20260902110554 70 98 0.0 0.0 0.00 0.00 0.00 96 1017.7
20260902110058 70 98 0.0 0.0 0.00 0.00 0.00 96 1017.7
20260902105555 71 98 0.0 0.0 0.00 0.00 0.00 95 1017.7
20260902105053 71 98 0.0 0.0 0.00 0.00 0.00 95 1017.6
20260902104616 71 98 0.0 0.0 0.00 0.00 0.00 95 1017.7
20260902104052 71 98 0.0 0.0 0.00 0.00 0.00 95 1017.6
20260902103552 71 98 0.0 0.0 0.00 0.00 0.00 95 1017.7
20260902103052 71 98 0.0 0.0 0.00 0.00 0.00 95 1017.7
20260902102553 71 98 0.0 0.0 0.00 0.00 0.00 95 1017.7
20260902102054 71 98 0.0 0.0 0.00 0.00 0.00 95 1017.6
20260902101550 71 98 0.0 0.0 0.00 0.00 0.00 95 1017.6
20260902101049 71 98 0.0 0.0 0.00 0.00 0.00 95 1017.5
20260902100551 71 98 0.0 1.0 0.00 0.00 0.00 95 1017.5
20260902100107 71 98 0.0 2.0 0.00 0.00 0.00 95 1017.5
20260902095551 71 98 0.0 2.0 0.00 0.00 0.00 95 1017.4
20260902095047 71 98 0.0 0.0 0.00 0.00 0.00 95 1017.3
20260902094546 71 98 0.0 0.0 0.00 0.00 0.00 95 1017.3
20260902094046 71 98 0.0 0.0 0.00 0.00 0.00 96 1017.3
20260902093545 71 98 0.0 0.0 0.00 0.00 0.00 96 1017.2
20260902093048 71 98 0.0 0.0 0.00 0.00 0.00 96 1017.2
20260902092546 71 98 0.0 0.0 0.00 0.00 0.00 96 1017.2
20260902092044 71 98 0.0 0.0 0.00 0.00 0.00 96 1017.1
20260902091543 71 98 0.0 0.0 0.00 0.00 0.00 96 1017.0
20260902091045 71 98 0.0 0.0 0.00 0.00 0.00 96 1017.0
20260902090543 71 98 0.0 0.0 0.00 0.00 0.00 96 1017.0
20260902090043 71 98 0.0 0.0 0.00 0.00 0.00 96 1017.0
20260902085542 71 98 0.0 0.0 0.00 0.00 0.00 96 1017.0
20260902085041 71 98 0.0 1.0 0.00 0.00 0.00 96 1017.0
20260902084542 71 98 0.0 2.0 0.00 0.00 0.00 96 1016.9
20260902084042 71 98 0.0 1.0 0.00 0.00 0.00 96 1016.8
20260902083541 71 98 0.0 2.0 0.00 0.00 0.00 96 1016.7
20260902083050 71 98 0.0 2.0 0.00 0.00 0.00 96 1016.7
20260902082540 71 98 0.0 1.0 0.00 0.00 0.00 95 1016.6
20260902082040 72 98 0.0 1.0 0.00 0.00 0.00 95 1016.7
20260902081603 72 98 0.0 0.0 0.00 0.00 0.00 96 1016.6
20260902081039 72 98 0.0 0.0 0.00 0.00 0.00 96 1016.5
20260902080543 72 98 0.0 0.0 0.00 0.00 0.00 96 1016.4
20260902080048 72 98 0.0 0.0 0.00 0.00 0.00 96 1016.4
20260902075538 72 98 0.0 0.0 0.00 0.00 0.00 96 1016.5
20260902075037 72 98 0.0 0.0 0.00 0.00 0.00 96 1016.4
20260902074539 72 98 0.0 0.0 0.00 0.00 0.00 96 1016.4
20260902074037 72 98 0.0 0.0 0.00 0.00 0.00 96 1016.5
20260902073538 72 98 0.0 0.0 0.00 0.00 0.00 96 1016.6
20260902073037 72 98 0.0 0.0 0.00 0.00 0.00 96 1016.6
20260902072535 72 98 0.0 0.0 0.00 0.00 0.00 96 1016.6
20260902072038 72 98 0.0 0.0 0.00 0.00 0.00 96 1016.6
20260902071538 72 98 0.0 0.0 0.00 0.00 0.00 96 1016.7
20260902071035 72 98 0.0 0.0 0.00 0.00 0.00 96 1016.8
20260902070534 72 98 0.0 0.0 0.00 0.00 0.00 96 1016.7
20260902070037 72 98 0.0 0.0 0.00 0.00 0.00 96 1016.6
20260902065537 72 98 0.0 0.0 0.00 0.00 0.00 96 1016.7
20260902065036 72 98 0.0 0.0 0.00 0.00 0.00 96 1016.7
20260902064535 72 98 0.0 0.0 0.00 0.00 0.00 96 1016.7
20260902064033 72 98 0.0 1.0 0.00 0.00 0.00 96 1016.7
20260902063534 72 98 0.0 1.0 0.00 0.00 0.00 95 1016.7
20260902063037 72 98 0.0 0.0 0.00 0.00 0.00 95 1016.7
20260902062533 72 98 0.0 0.0 0.00 0.00 0.00 95 1016.7
20260902062033 72 98 0.0 1.0 0.00 0.00 0.00 95 1016.7
20260902061532 72 98 0.0 1.0 0.00 0.00 0.00 95 1016.9
20260902061037 72 98 0.0 0.0 0.00 0.00 0.00 95 1016.9
20260902060530 73 98 0.0 0.0 0.00 0.00 0.00 95 1016.8
20260902060033 73 98 0.0 0.0 0.00 0.00 0.00 95 1016.7
20260902055530 73 98 0.0 0.0 0.00 0.00 0.00 95 1016.8
20260902055030 73 98 0.0 0.0 0.00 0.00 0.00 95 1016.8
20260902054528 73 98 0.0 0.0 0.00 0.00 0.00 95 1016.8
20260902054028 73 98 0.0 0.0 0.00 0.00 0.00 94 1016.7
20260902053528 73 98 0.0 0.0 0.00 0.00 0.00 94 1016.8
20260902053028 73 98 0.0 0.0 0.00 0.00 0.00 94 1016.8
20260902052527 73 98 0.0 0.0 0.00 0.00 0.00 94 1016.7
20260902052027 73 98 0.0 0.0 0.00 0.00 0.00 94 1016.7
20260902051527 73 98 0.0 0.0 0.00 0.00 0.00 94 1016.8
20260902051030 73 98 0.0 0.0 0.00 0.00 0.00 94 1016.7
20260902050527 73 98 0.0 0.0 0.00 0.00 0.00 94 1016.7
20260902050026 73 98 0.0 0.0 0.00 0.00 0.00 94 1016.6
20260902045525 73 98 0.0 0.0 0.00 0.00 0.00 94 1016.7
20260902045025 73 98 0.0 0.0 0.00 0.00 0.00 93 1016.7
20260902044538 73 98 0.0 0.0 0.00 0.00 0.00 93 1016.7
20260902044025 73 98 0.0 0.0 0.00 0.00 0.00 93 1016.7
20260902043524 73 98 0.0 0.0 0.00 0.00 0.00 93 1016.7
20260902043023 74 98 0.0 0.0 0.00 0.00 0.00 93 1016.7
20260902042523 74 98 0.0 0.0 0.00 0.00 0.00 93 1016.7
20260902042022 74 98 0.0 0.0 0.00 0.00 0.00 92 1016.7
20260902041522 74 98 0.0 0.0 0.00 0.00 0.00 92 1016.7
20260902041020 75 98 0.0 0.0 0.00 0.00 0.00 92 1016.7
20260902040519 75 98 0.0 0.0 0.00 0.00 0.00 92 1016.7
20260902040018 75 98 0.0 0.0 0.00 0.00 0.00 92 1016.7
20260902035517 75 98 0.0 0.0 0.00 0.00 0.00 91 1016.8
20260902035017 75 98 0.0 0.0 0.00 0.00 0.00 91 1016.8
20260902034517 75 98 0.0 0.0 0.00 0.00 0.00 91 1016.8
20260902034017 75 98 0.0 0.0 0.00 0.00 0.00 91 1016.7
20260902033517 75 98 0.0 0.0 0.00 0.00 0.00 91 1016.8
20260902033017 75 98 0.0 0.0 0.00 0.00 0.00 90 1016.8
20260902032521 75 98 0.0 0.0 0.00 0.00 0.00 90 1016.8
20260902032017 75 98 0.0 0.0 0.00 0.00 0.00 90 1016.8
20260902031525 75 98 0.0 0.0 0.00 0.00 0.00 90 1016.8
20260902031017 76 98 0.0 0.0 0.00 0.00 0.00 90 1016.8
20260902030516 76 98 0.0 1.0 0.00 0.00 0.00 89 1016.8
20260902030016 76 98 0.0 1.0 0.00 0.00 0.00 89 1016.9
20260902025516 76 98 0.0 0.0 0.00 0.00 0.00 89 1016.8
20260902025016 76 98 0.0 0.0 0.00 0.00 0.00 89 1016.9
20260902024516 76 98 0.0 0.0 0.00 0.00 0.00 89 1016.8
20260902024017 77 98 0.0 0.0 0.00 0.00 0.00 88 1016.8
20260902023515 77 98 0.0 0.0 0.00 0.00 0.00 87 1016.8
20260902023015 77 98 0.0 0.0 0.00 0.00 0.00 88 1016.8
20260902022515 77 98 0.0 0.0 0.00 0.00 0.00 87 1016.7
20260902022015 77 98 0.0 0.0 0.00 0.00 0.00 87 1016.8
20260902021520 77 98 0.0 0.0 0.00 0.00 0.00 86 1016.7
20260902021016 78 98 0.0 0.0 0.00 0.00 0.00 86 1016.7
20260902020516 78 98 0.0 0.0 0.00 0.00 0.00 85 1016.7
20260902020014 78 98 0.0 0.0 0.00 0.00 0.00 85 1016.6
20260902015514 78 98 0.0 0.0 0.00 0.00 0.00 86 1016.5
20260902015014 78 98 0.0 0.0 0.00 0.00 0.00 86 1016.4
20260902014534 78 98 0.0 0.0 0.00 0.00 0.00 85 1016.4
20260902014013 78 98 0.0 0.0 0.00 0.00 0.00 85 1016.4
20260902013514 78 98 0.0 0.0 0.00 0.00 0.00 85 1016.3
20260902013013 79 98 0.0 0.0 0.00 0.00 0.00 85 1016.2
20260902012513 79 98 0.0 0.0 0.00 0.00 0.00 85 1016.2
20260902012016 79 98 0.0 0.0 0.00 0.00 0.00 84 1016.2
20260902011513 79 98 0.0 0.0 0.00 0.00 0.00 82 1016.1
20260902011014 79 98 0.0 0.0 0.00 0.00 0.00 83 1016.1
20260902010512 80 98 0.0 0.0 0.00 0.00 0.00 82 1016.1
20260902010015 80 98 0.0 0.0 0.00 0.00 0.00 81 1016.0
20260902005512 81 98 0.0 0.0 0.00 0.00 0.00 79 1016.0
20260902005014 81 98 0.0 0.0 0.00 0.00 0.00 80 1016.0
20260902004512 81 98 0.0 0.0 0.00 0.00 0.00 79 1016.0
20260902004015 81 98 0.0 0.0 0.00 0.00 0.00 78 1015.9
20260902003513 82 98 0.0 0.0 0.00 0.00 0.00 77 1015.9
20260902003012 82 98 0.0 0.0 0.00 0.00 0.00 75 1016.0
20260902002513 83 98 0.0 0.0 0.00 0.00 0.00 73 1015.9
20260902002011 83 98 0.0 0.0 0.00 0.00 0.00 74 1015.8
20260902001511 83 98 0.0 0.0 0.00 0.00 0.00 72 1015.9
20260902001012 83 98 0.0 0.0 0.00 0.00 0.00 74 1015.9
20260902000510 84 98 0.0 0.0 0.00 0.00 0.00 73 1015.8
20260902000010 85 98 0.0 0.0 0.00 0.00 0.00 71 1015.8
20260901235512 85 98 0.0 0.0 0.00 0.00 0.00 67 1015.8
20260901235009 85 98 0.0 0.0 0.00 0.00 0.00 71 1015.8
20260901234525 86 98 0.0 0.0 0.00 0.00 0.00 67 1015.9
20260901234009 86 98 0.0 0.0 0.00 0.00 0.00 69 1016.0
20260901233510 86 98 0.0 0.0 0.00 0.00 0.00 65 1016.0
20260901233011 87 98 0.0 0.0 0.00 0.00 0.00 65 1016.0
20260901232508 87 98 0.0 0.0 0.00 0.00 0.00 63 1016.1
20260901232008 88 98 0.0 0.0 0.00 0.00 0.00 64 1016.1
20260901231508 88 98 0.0 0.0 0.00 0.00 0.00 62 1016.1
20260901231008 89 98 0.0 0.0 0.00 0.00 0.00 60 1016.1
20260901230507 89 98 0.0 0.0 0.00 0.00 0.00 60 1016.1
20260901230011 90 98 0.0 0.0 0.00 0.00 0.00 60 1015.9
20260901225505 90 98 0.0 1.0 0.00 0.00 0.00 58 1016.0
20260901225004 90 98 0.0 1.0 0.00 0.00 0.00 56 1016.0
20260901224504 90 98 0.0 0.0 0.00 0.00 0.00 58 1015.9
20260901224004 91 98 0.0 3.0 0.00 0.00 0.00 57 1015.8
20260901223503 92 98 0.0 3.0 0.00 0.00 0.00 54 1015.9
20260901223005 92 119 1.0 5.0 0.00 0.00 0.00 53 1015.8
20260901222503 92 115 2.0 5.0 0.00 0.00 0.00 53 1015.8
20260901222005 92 65 1.0 3.0 0.00 0.00 0.00 55 1015.8
20260901221507 92 109 0.0 2.0 0.00 0.00 0.00 54 1015.8
20260901221003 91 85 0.0 1.0 0.00 0.00 0.00 54 1015.7
20260901220502 91 126 0.0 1.0 0.00 0.00 0.00 54 1015.8
20260901220002 92 77 0.0 5.0 0.00 0.00 0.00 55 1015.7
20260901215503 92 84 1.0 5.0 0.00 0.00 0.00 53 1015.7
20260901215003 92 136 1.0 3.0 0.00 0.00 0.00 54 1015.7
20260901214500 92 78 0.0 3.0 0.00 0.00 0.00 54 1015.7
20260901214100 92 90 1.0 3.0 0.00 0.00 0.00 55 1015.8
20260901213601 92 5 0.0 1.0 0.00 0.00 0.00 55 1015.8
20260901213106 91 49 0.0 0.0 0.00 0.00 0.00 57 1015.8
20260901212600 92 49 0.0 0.0 0.00 0.00 0.00 59 1015.8
20260901212100 92 348 0.0 0.0 0.00 0.00 0.00 56 1015.8
20260901211532 92 355 0.0 1.0 0.00 0.00 0.00 54 1015.8
20260901211100 92 65 0.0 2.0 0.00 0.00 0.00 53 1015.9
20260901210558 92 84 0.0 3.0 0.00 0.00 0.00 56 1015.9
20260901210058 93 94 0.0 3.0 0.00 0.00 0.00 52 1016.0
20260901205600 93 95 1.0 6.0 0.00 0.00 0.00 52 1015.9
20260901205057 93 92 1.0 6.0 0.00 0.00 0.00 52 1016.0
20260901204558 92 57 0.0 3.0 0.00 0.00 0.00 54 1016.0
20260901204056 92 124 0.0 2.0 0.00 0.00 0.00 53 1016.1
20260901203556 92 66 0.0 2.0 0.00 0.00 0.00 54 1016.2
20260901203102 92 323 0.0 3.0 0.00 0.00 0.00 53 1016.2
20260901202554 92 336 0.0 3.0 0.00 0.00 0.00 54 1016.2